Track STARLINK-2100 now! 10-day predictions STARLINK-2100 is classified as:
1 47380U 21005AH 21107.91667824 .00085215 00000-0 92673-3 0 9995 2 47380 53.0532 142.6097 0004015 6.8098 82.3744 15.62747472 1770